Regional Weather Roundup
Issued by NWS Charleston, SC

Current Version | Previous Version | Graphics & Text | Print | Product List | Glossary On
Versions: 1 2 3 4 5 6 7 8 9 10 11 12 13 14 15 16 17 18 19 20 21 22 23 24 25 26 27 28 29 30 31 32 33 34 35 36 37 38 39 40 41 42 43 44 45 46 47 48 49 50
000
ASUS42 KCHS 232312
RWRCHS

REGIONAL WEATHER ROUNDUP
NATIONAL WEATHER SERVICE CHARLESTON SC
700 PM EDT SAT MAY 23 2015

NOTE: "FAIR" INDICATES FEW OR NO CLOUDS BELOW 12,000 FEET WITH NO
SIGNIFICANT WEATHER AND/OR OBSTRUCTIONS TO VISIBILITY.

NOT ALL STATIONS ARE QUALITY CONTROLLED BY THE NATIONAL
WEATHER SERVICE. USE DATA WITH CAUTION...ESPECIALLY
DEWPOINT OBSERVATIONS.

SCZ027-030-031-034>040-042>050-240000-
...SOUTHEAST SOUTH CAROLINA...

CITY           SKY/WX    TMP DP  RH WIND       PRES   REMARKS
N CHARLESTON   MOSUNNY   76  58  53 E14       30.34F
WATERFRONT PAR   N/A     75  64  68 E15       30.31F
MOUNT PLEASANT FAIR      75  63  64 NE8       30.34S
JOHNS ISLAND   CLEAR     75  63  64 E13       30.34F
PINOPOLIS        N/A     82  57  42 E6        30.27S
MONCKS CORNER  FAIR      79  57  47 E7        30.34S
SUMMERVILLE    FAIR      79  59  50 E5        30.34S
BEAUFORT MCAS  PTSUNNY   76  61  59 E14G21    30.33S
BEAUFORT ARPT  MOCLDY    73  64  73 E12G17    30.33S
HILTON HEAD IS PTSUNNY   75  64  69 NE12      30.34S
WALTERBORO     CLEAR     77  57  50 E10       30.34R
ALLENDALE      FAIR      81  55  41 E6        30.30S

...SOUTHERN MIDLANDS AND PEE DEE...

CITY           SKY/WX    TMP DP  RH WIND       PRES   REMARKS
GEORGETOWN     NOT AVBL
KINGSTREE      NOT AVBL
ORANGEBURG     SUNNY     80  49  33 SE7       30.33S
BARNWELL       FAIR      82  48  30 E6        30.32S
AIKEN          FAIR      79  39  24 SE8       30.35S
MANNING        FAIR      77  10   8 E5        30.34F
COLUMBIA       SUNNY     81  43  26 SE9       30.32S
SUMTER         SUNNY     81  42  24 SE8       30.31F
FLORENCE       SUNNY     80  45  28 SE14      30.34S
MYRTLE BEACH   SUNNY     75  57  53 E14       30.38F
N MYRTLE BEACH SUNNY     75  57  53 E9        30.37F

$$

GAZ063-065-086>088-099>101-113>116-118-119-134>141-150-240000-
...SOUTHEAST GEORGIA...

CITY           SKY/WX    TMP DP  RH WIND       PRES   REMARKS
SAVANNAH ARPT  PTSUNNY   76  61  59 E12       30.32S
HUNTER AAF     MOSUNNY   76  64  65 E16       30.29F
FORT STEWART   SUNNY     78  63  58 E10       30.29S
STATESBORO     MOSUNNY   81  63  54 SE5       30.30F
SYLVANIA       CLEAR     81  62  52 SE6       30.31S
CLAXTON        FAIR      77  63  61 CALM      30.30S

...CSRA...CENTRAL AND FAR SOUTHEAST GEORGIA...

CITY           SKY/WX    TMP DP  RH WIND       PRES   REMARKS
THOMSON        SUNNY     84  50  30 E5        30.34S
AUGUSTA-BUSH   SUNNY     81  45  28 SE8       30.29F
AUGUSTA-DANIEL SUNNY     83  44  25 SE8       30.31S
SWAINSBORO     FAIR      86  54  32 E8        30.29F
VIDALIA        SUNNY     81  57  44 E9        30.28F
EASTMAN        FAIR      84  54  34 E7        30.28F
HAZLEHURST     FAIR      83  58  43 E7        30.25F
ALMA           MOSUNNY   80  60  50 E10G18    30.26F
WAYCROSS       MOSUNNY   81  66  59 E15       30.26S
JESUP          FAIR      81  66  61 E10G18    30.29F
BAXLEY         FAIR      82  61  47 E7        30.26F
BRUNSWICK      CLOUDY    75  64  69 NE12G17   30.30F
SAINT SIMONS   NOT AVBL

$$

SCZ027-028-034-036>038-045-046-048>050-GAZ119-141-240000-
...LAKE AND SUPPLEMENTAL COASTAL OBSERVATIONS...

STATION/POSITION TIME  TEMP    WIND        PRES    WAVE   SWELL
                       AIR SEA DIR/SP/G            HT/PER HT/PER/DIR
                 (UTC) (F)     (DEG/KT/KT) (MB)    (FT/S) (FT/S/D)
UPR LAKE MARION  NOT AVBL
WINYAH BAY       NOT AVBL
LAKE MURRAY      2200   81     130/  6/  8 1026.1F
ACE BASIN NERRS  NOT AVBL
FORT PULASKI     2200   74 79   60/ 16/ 20 1027.3F
SAPELO ISLAND    2200   76      50/ 15     1026.0S

$$

ANZ835-935-AMZ111-154-330-350-352-354-370-450-454-472-240000-
...C-MAN AND BUOY OBSERVATIONS...

STATION/POSITION TIME  TEMP    WIND        PRES    WAVE   SWELL
                       AIR SEA DIR/SP/G            HT/PER HT/PER/DIR
                 (UTC) (F)     (DEG/KT/KT) (MB)    (FT/S) (FT/S/D)
BUOY 41004       2250   76 76   80/ 16/ 19 1026.6S   4/ 6   2/10
BUOY 41008       2250   74 75   50/ 17/ 19 1025.7F   5/ 6
FOLLY BEACH CMAN 2300   74      70/ 15/ 17 1027.5S
CAPERS NEARSHORE 2208   74      70/ 16/ 19 1027.9R
FRIPP NEARSHORE  2200   75      60/ 16/ 17 1026.2F


STATION/POSITION TIME  TEMP    WIND        PRES    WAVE   SWELL
                       AIR SEA DIR/SP/G            HT/PER HT/PER/DIR
                 (UTC) (F)     (DEG/KT/KT) (MB)    (FT/S) (FT/S/D)
5E ST. MARYS GA  2221      78                N/A     5/ 5
FRYING PAN BUOY  2250   74 74   70/ 16/ 17 1028.5F   4/ 5   2/ 80/ 8
BUOY 41025       2250   69 77   40/ 14/ 16 1029.3R   4/ 8   2/ 50/ 8
CAPE LOOKOUT NC  2300   71      70/ 13/ 14 1028.8R
BUOY 41002       2250   72 74   70/ 21/ 25 1026.6S   6/ 6   2/ 90/ 9
BUOY 41010       2220   79 81   60/ 19/ 21 1023.1F
ST AUGUSTINE FL  2300   77 77   60/ 13/ 14 1024.8F


$$


USA.gov is the U.S. government's official web portal to all federal, state and local government web resources and services.